Time,TemperatureF,DewpointF,PressureIn,WindDirection,WindDirectionDegrees,WindSpeedMPH,WindSpeedGustMPH,Humidity,HourlyPrecipIn,Conditions,Clouds,dailyrainin,SoftwareType,DateUTC
2013-03-05 00:02:00,44.0,42.0,30.09,NE,55,0.0,2.0,92,-99.99,,,-99.99,,2013-03-05 08:02:00,
2013-03-05 00:11:00,44.0,42.0,30.09,NE,55,0.0,2.0,92,-99.99,,,-99.99,,2013-03-05 08:11:00,
2013-03-05 00:21:00,44.0,42.0,30.09,NE,55,0.0,2.0,92,-99.99,,,-99.99,,2013-03-05 08:21:00,
2013-03-05 00:31:00,44.0,42.0,30.08,NE,55,0.0,2.0,92,-99.99,,,-99.99,,2013-03-05 08:31:00,
2013-03-05 00:41:00,44.0,42.0,30.08,NE,55,0.0,2.0,92,-99.99,,,-99.99,,2013-03-05 08:41:00,
2013-03-05 00:52:00,45.0,43.0,30.08,NE,55,0.0,0.0,93,-99.99,,,-99.99,,2013-03-05 08:52:00,
2013-03-05 01:01:00,45.0,43.0,30.08,NE,55,0.0,0.0,93,-99.99,,,-99.99,,2013-03-05 09:01:00,
2013-03-05 01:11:00,45.0,43.0,30.08,NE,55,0.0,0.0,93,-99.99,,,-99.99,,2013-03-05 09:11:00,
2013-03-05 01:21:00,45.0,43.0,30.08,NE,55,0.0,0.0,93,-99.99,,,-99.99,,2013-03-05 09:21:00,
2013-03-05 01:31:00,45.0,43.0,30.07,NE,55,1.0,2.0,93,-99.99,,,-99.99,,2013-03-05 09:31:00,
2013-03-05 01:42:00,45.0,43.0,30.07,NE,55,1.0,2.0,93,-99.99,,,-99.99,,2013-03-05 09:42:00,
2013-03-05 01:51:00,45.0,43.0,30.07,NE,55,0.0,1.0,93,-99.99,,,-99.99,,2013-03-05 09:51:00,
2013-03-05 02:01:00,45.0,43.0,30.07,NE,55,0.0,2.0,93,-99.99,,,-99.99,,2013-03-05 10:01:00,
2013-03-05 02:11:00,45.0,43.0,30.07,NE,55,0.0,2.0,93,-99.99,,,-99.99,,2013-03-05 10:11:00,
2013-03-05 02:21:00,45.0,43.0,30.06,NE,55,1.0,3.0,93,-99.99,,,-99.99,,2013-03-05 10:21:00,
2013-03-05 02:32:00,45.0,43.0,30.06,NE,55,0.0,2.0,93,-99.99,,,-99.99,,2013-03-05 10:32:00,
2013-03-05 02:41:00,45.0,43.0,30.06,NE,55,0.0,2.0,93,-99.99,,,-99.99,,2013-03-05 10:41:00,
2013-03-05 02:51:00,46.0,44.0,30.06,SE,131,0.0,3.0,93,-99.99,,,-99.99,,2013-03-05 10:51:00,
2013-03-05 03:01:00,46.0,44.0,30.07,SE,134,1.0,1.0,93,-99.99,,,-99.99,,2013-03-05 11:01:00,
2013-03-05 03:11:00,46.0,44.0,30.07,SE,134,1.0,1.0,93,-99.99,,,-99.99,,2013-03-05 11:11:00,
2013-03-05 03:21:00,46.0,44.0,30.07,SE,134,1.0,1.0,93,-99.99,,,-99.99,,2013-03-05 11:21:00,
2013-03-05 03:32:00,46.0,44.0,30.06,SSE,148,1.0,2.0,93,-99.99,,,-99.99,,2013-03-05 11:32:00,
2013-03-05 03:41:00,46.0,44.0,30.06,SSE,148,1.0,2.0,93,-99.99,,,-99.99,,2013-03-05 11:41:00,
2013-03-05 03:52:00,46.0,44.0,30.06,SSE,161,3.0,5.0,93,-99.99,,,-99.99,,2013-03-05 11:52:00,
2013-03-05 04:02:00,46.0,44.0,30.06,WSW,241,5.0,10.0,93,-99.99,,,-99.99,,2013-03-05 12:02:00,
2013-03-05 04:11:00,46.0,44.0,30.06,WSW,241,5.0,10.0,93,-99.99,,,-99.99,,2013-03-05 12:11:00,
2013-03-05 04:22:00,46.0,44.0,30.06,WSW,241,5.0,10.0,93,-99.99,,,-99.99,,2013-03-05 12:22:00,
2013-03-05 04:32:00,46.0,44.0,30.07,SW,226,7.0,11.0,93,-99.99,,,-99.99,,2013-03-05 12:32:00,
2013-03-05 04:42:00,46.0,44.0,30.07,SW,226,7.0,11.0,93,-99.99,,,-99.99,,2013-03-05 12:42:00,
2013-03-05 04:52:00,46.0,44.0,30.07,SW,234,1.0,3.0,93,-99.99,,,-99.99,,2013-03-05 12:52:00,
2013-03-05 05:01:00,46.0,44.0,30.08,SW,234,3.0,4.0,94,-99.99,,,-99.99,,2013-03-05 13:01:00,
2013-03-05 05:11:00,46.0,44.0,30.08,SW,234,3.0,4.0,94,-99.99,,,-99.99,,2013-03-05 13:11:00,
2013-03-05 05:21:00,46.0,44.0,30.08,WSW,250,2.0,4.0,94,-99.99,,,-99.99,,2013-03-05 13:21:00,
2013-03-05 05:31:00,46.0,44.0,30.08,SW,236,2.0,4.0,94,-99.99,,,-99.99,,2013-03-05 13:31:00,
2013-03-05 05:41:00,46.0,44.0,30.08,SW,236,2.0,4.0,94,-99.99,,,-99.99,,2013-03-05 13:41:00,
2013-03-05 05:52:00,46.0,44.0,30.09,West,260,0.0,3.0,94,-99.99,,,-99.99,,2013-03-05 13:52:00,
2013-03-05 06:02:00,45.0,43.0,30.09,WSW,246,0.0,5.0,94,-99.99,,,-99.99,,2013-03-05 14:02:00,
2013-03-05 06:11:00,45.0,43.0,30.09,WSW,246,0.0,5.0,94,-99.99,,,-99.99,,2013-03-05 14:11:00,
2013-03-05 06:21:00,45.0,43.0,30.09,WSW,253,0.0,3.0,94,-99.99,,,-99.99,,2013-03-05 14:21:00,
2013-03-05 06:31:00,45.0,43.0,30.08,WSW,253,0.0,1.0,94,-99.99,,,-99.99,,2013-03-05 14:31:00,
2013-03-05 06:41:00,45.0,43.0,30.08,WSW,253,0.0,1.0,94,-99.99,,,-99.99,,2013-03-05 14:41:00,
2013-03-05 06:52:00,45.0,43.0,30.08,WSW,253,0.0,2.0,94,-99.99,,,-99.99,,2013-03-05 14:52:00,
2013-03-05 07:01:00,45.0,43.0,30.09,WSW,253,0.0,2.0,94,-99.99,,,-99.99,,2013-03-05 15:01:00,
2013-03-05 07:11:00,45.0,43.0,30.09,WSW,253,0.0,2.0,94,-99.99,,,-99.99,,2013-03-05 15:11:00,
2013-03-05 07:21:00,44.0,42.0,30.08,WSW,253,0.0,1.0,94,-99.99,,,-99.99,,2013-03-05 15:21:00,
2013-03-05 07:31:00,44.0,42.0,30.09,WSW,253,0.0,1.0,94,-99.99,,,-99.99,,2013-03-05 15:31:00,
2013-03-05 07:42:00,44.0,42.0,30.09,WSW,253,0.0,1.0,94,-99.99,,,-99.99,,2013-03-05 15:42:00,
2013-03-05 07:51:00,44.0,42.0,30.09,WSW,253,0.0,1.0,94,-99.99,,,-99.99,,2013-03-05 15:51:00,
2013-03-05 08:01:00,45.0,43.0,30.09,WSW,253,0.0,0.0,93,-99.99,,,-99.99,,2013-03-05 16:01:00,
2013-03-05 08:11:00,45.0,43.0,30.09,WSW,253,0.0,0.0,93,-99.99,,,-99.99,,2013-03-05 16:11:00,
2013-03-05 08:21:00,45.0,43.0,30.09,WSW,253,0.0,0.0,93,-99.99,,,-99.99,,2013-03-05 16:21:00,
2013-03-05 08:31:00,45.0,43.0,30.10,SW,233,2.0,3.0,92,-99.99,,,-99.99,,2013-03-05 16:31:00,
2013-03-05 08:41:00,45.0,43.0,30.10,SW,233,2.0,3.0,92,-99.99,,,-99.99,,2013-03-05 16:41:00,
2013-03-05 08:51:00,46.0,44.0,30.10,SW,226,3.0,5.0,91,-99.99,,,-99.99,,2013-03-05 16:51:00,
2013-03-05 09:01:00,46.0,42.0,30.10,South,191,1.0,3.0,87,-99.99,,,-99.99,,2013-03-05 17:01:00,
2013-03-05 09:11:00,46.0,42.0,30.10,South,191,1.0,3.0,87,-99.99,,,-99.99,,2013-03-05 17:11:00,
2013-03-05 09:21:00,46.0,42.0,30.10,South,191,1.0,3.0,87,-99.99,,,-99.99,,2013-03-05 17:21:00,
2013-03-05 09:32:00,48.0,41.0,30.09,SSW,200,5.0,7.0,77,-99.99,,,-99.99,,2013-03-05 17:32:00,
2013-03-05 09:41:00,48.0,41.0,30.09,SSW,200,5.0,7.0,77,-99.99,,,-99.99,,2013-03-05 17:41:00,
2013-03-05 09:52:00,50.0,42.0,30.09,SSW,213,1.0,8.0,73,-99.99,,,-99.99,,2013-03-05 17:52:00,
2013-03-05 10:01:00,50.0,41.0,30.09,SW,229,2.0,6.0,72,-99.99,,,-99.99,,2013-03-05 18:01:00,
2013-03-05 10:11:00,50.0,41.0,30.09,SW,229,2.0,6.0,72,-99.99,,,-99.99,,2013-03-05 18:11:00,
2013-03-05 10:21:00,50.0,41.0,30.09,SW,229,2.0,6.0,72,-99.99,,,-99.99,,2013-03-05 18:21:00,
2013-03-05 10:32:00,51.0,40.0,30.08,SSW,200,2.0,7.0,67,-99.99,,,-99.99,,2013-03-05 18:32:00,
2013-03-05 10:41:00,51.0,40.0,30.08,SSW,200,2.0,7.0,67,-99.99,,,-99.99,,2013-03-05 18:41:00,
2013-03-05 10:53:00,51.0,40.0,30.07,SW,217,2.0,6.0,67,-99.99,,,-99.99,,2013-03-05 18:53:00,
2013-03-05 11:01:00,51.0,40.0,30.07,SW,217,2.0,6.0,67,-99.99,,,-99.99,,2013-03-05 19:01:00,
2013-03-05 11:11:00,51.0,40.0,30.07,SW,217,2.0,6.0,67,-99.99,,,-99.99,,2013-03-05 19:11:00,
2013-03-05 11:21:00,52.0,41.0,30.07,ESE,114,7.0,8.0,67,-99.99,,,-99.99,,2013-03-05 19:21:00,
2013-03-05 11:32:00,53.0,41.0,30.06,South,169,2.0,9.0,64,-99.99,,,-99.99,,2013-03-05 19:32:00,
2013-03-05 11:41:00,53.0,41.0,30.06,South,169,2.0,9.0,64,-99.99,,,-99.99,,2013-03-05 19:41:00,
2013-03-05 11:51:00,54.0,42.0,30.06,SSW,192,3.0,11.0,64,-99.99,,,-99.99,,2013-03-05 19:51:00,
2013-03-05 12:01:00,55.0,43.0,30.06,SSW,195,5.0,12.0,64,-99.99,,,-99.99,,2013-03-05 20:01:00,
2013-03-05 12:11:00,55.0,43.0,30.06,SSW,195,5.0,12.0,64,-99.99,,,-99.99,,2013-03-05 20:11:00,
2013-03-05 12:21:00,55.0,43.0,30.06,SSW,195,5.0,12.0,64,-99.99,,,-99.99,,2013-03-05 20:21:00,
2013-03-05 12:32:00,55.0,44.0,30.05,WSW,251,8.0,16.0,66,-99.99,,,-99.99,,2013-03-05 20:32:00,
2013-03-05 12:41:00,55.0,44.0,30.05,WSW,251,8.0,16.0,66,-99.99,,,-99.99,,2013-03-05 20:41:00,
2013-03-05 12:52:00,55.0,43.0,30.05,SW,232,6.0,14.0,65,-99.99,,,-99.99,,2013-03-05 20:52:00,
2013-03-05 13:01:00,54.0,43.0,30.04,SW,232,10.0,13.0,67,-99.99,,,-99.99,,2013-03-05 21:01:00,
2013-03-05 13:11:00,54.0,43.0,30.04,SW,232,10.0,13.0,67,-99.99,,,-99.99,,2013-03-05 21:11:00,
2013-03-05 13:21:00,55.0,45.0,30.04,SW,233,11.0,14.0,68,-99.99,,,-99.99,,2013-03-05 21:21:00,
2013-03-05 13:31:00,53.0,43.0,30.03,West,278,5.0,13.0,70,-99.99,,,-99.99,,2013-03-05 21:31:00,
2013-03-05 13:41:00,53.0,43.0,30.03,West,278,5.0,13.0,70,-99.99,,,-99.99,,2013-03-05 21:41:00,
2013-03-05 13:52:00,53.0,43.0,30.02,West,265,6.0,13.0,69,-99.99,,,-99.99,,2013-03-05 21:52:00,
2013-03-05 14:01:00,53.0,44.0,30.02,WSW,246,9.0,14.0,71,-99.99,,,-99.99,,2013-03-05 22:01:00,
2013-03-05 14:11:00,53.0,44.0,30.02,WSW,246,9.0,14.0,71,-99.99,,,-99.99,,2013-03-05 22:11:00,
2013-03-05 14:21:00,53.0,43.0,30.02,West,268,11.0,14.0,70,-99.99,,,-99.99,,2013-03-05 22:21:00,
2013-03-05 14:31:00,52.0,43.0,30.01,WSW,258,6.0,14.0,71,-99.99,,,-99.99,,2013-03-05 22:31:00,
2013-03-05 14:41:00,52.0,43.0,30.01,WSW,258,6.0,14.0,71,-99.99,,,-99.99,,2013-03-05 22:41:00,
2013-03-05 14:52:00,53.0,43.0,30.01,WSW,257,7.0,18.0,70,-99.99,,,-99.99,,2013-03-05 22:52:00,
2013-03-05 15:01:00,53.0,43.0,30.01,West,261,3.0,19.0,70,-99.99,,,-99.99,,2013-03-05 23:01:00,
2013-03-05 15:11:00,53.0,43.0,30.01,West,261,3.0,19.0,70,-99.99,,,-99.99,,2013-03-05 23:11:00,
2013-03-05 15:21:00,53.0,43.0,30.00,WSW,246,6.0,18.0,70,-99.99,,,-99.99,,2013-03-05 23:21:00,
2013-03-05 15:32:00,53.0,43.0,30.00,WSW,258,12.0,18.0,69,-99.99,,,-99.99,,2013-03-05 23:32:00,
2013-03-05 15:41:00,53.0,43.0,30.00,WSW,258,12.0,18.0,69,-99.99,,,-99.99,,2013-03-05 23:41:00,
2013-03-05 15:52:00,53.0,44.0,29.99,SW,222,5.0,13.0,71,-99.99,,,-99.99,,2013-03-05 23:52:00,
2013-03-05 16:01:00,53.0,43.0,29.99,West,271,7.0,16.0,70,-99.99,,,-99.99,,2013-03-06 00:01:00,
2013-03-05 16:11:00,53.0,43.0,29.99,West,271,7.0,16.0,70,-99.99,,,-99.99,,2013-03-06 00:11:00,
2013-03-05 16:21:00,53.0,43.0,29.99,West,271,7.0,16.0,70,-99.99,,,-99.99,,2013-03-06 00:21:00,
2013-03-05 16:32:00,52.0,43.0,29.98,WNW,296,6.0,16.0,72,-99.99,,,-99.99,,2013-03-06 00:32:00,
2013-03-05 16:41:00,52.0,43.0,29.98,WNW,296,6.0,16.0,72,-99.99,,,-99.99,,2013-03-06 00:41:00,
2013-03-05 16:52:00,52.0,43.0,29.98,WSW,239,6.0,10.0,72,-99.99,,,-99.99,,2013-03-06 00:52:00,
2013-03-05 17:01:00,52.0,44.0,29.98,West,268,0.0,12.0,74,-99.99,,,-99.99,,2013-03-06 01:01:00,
2013-03-05 17:11:00,52.0,44.0,29.98,West,268,0.0,12.0,74,-99.99,,,-99.99,,2013-03-06 01:11:00,
2013-03-05 17:21:00,53.0,45.0,29.98,WSW,239,2.0,10.0,73,-99.99,,,-99.99,,2013-03-06 01:21:00,
2013-03-05 17:31:00,53.0,43.0,29.97,WSW,240,7.0,13.0,69,-99.99,,,-99.99,,2013-03-06 01:31:00,
2013-03-05 17:41:00,53.0,43.0,29.97,WSW,240,7.0,13.0,69,-99.99,,,-99.99,,2013-03-06 01:41:00,
2013-03-05 17:51:00,53.0,43.0,29.97,WSW,240,7.0,13.0,69,-99.99,,,-99.99,,2013-03-06 01:51:00,
2013-03-05 18:01:00,52.0,43.0,29.96,West,263,5.0,6.0,70,-99.99,,,-99.99,,2013-03-06 02:01:00,
2013-03-05 18:11:00,52.0,43.0,29.96,West,263,5.0,6.0,70,-99.99,,,-99.99,,2013-03-06 02:11:00,
2013-03-05 18:21:00,52.0,43.0,29.96,West,263,5.0,6.0,70,-99.99,,,-99.99,,2013-03-06 02:21:00,
2013-03-05 18:31:00,51.0,43.0,29.96,WSW,248,3.0,7.0,73,-99.99,,,-99.99,,2013-03-06 02:31:00,
2013-03-05 18:41:00,51.0,43.0,29.96,WSW,248,3.0,7.0,73,-99.99,,,-99.99,,2013-03-06 02:41:00,
2013-03-05 18:52:00,50.0,42.0,29.96,West,267,4.0,8.0,73,-99.99,,,-99.99,,2013-03-06 02:52:00,
2013-03-05 19:01:00,50.0,42.0,29.96,West,272,0.0,6.0,74,-99.99,,,-99.99,,2013-03-06 03:01:00,
2013-03-05 19:11:00,50.0,42.0,29.96,West,272,0.0,6.0,74,-99.99,,,-99.99,,2013-03-06 03:11:00,
2013-03-05 19:21:00,50.0,42.0,29.95,WNW,289,0.0,2.0,74,-99.99,,,-99.99,,2013-03-06 03:21:00,
2013-03-05 19:31:00,49.0,42.0,29.95,NW,319,0.0,7.0,78,-99.99,,,-99.99,,2013-03-06 03:31:00,
2013-03-05 19:41:00,49.0,42.0,29.95,NW,319,0.0,7.0,78,-99.99,,,-99.99,,2013-03-06 03:41:00,
2013-03-05 19:52:00,49.0,42.0,29.95,NW,319,0.0,7.0,78,-99.99,,,-99.99,,2013-03-06 03:52:00,
2013-03-05 20:01:00,48.0,42.0,29.95,North,0,3.0,3.0,80,-99.99,,,-99.99,,2013-03-06 04:01:00,
2013-03-05 20:11:00,48.0,42.0,29.95,North,0,3.0,3.0,80,-99.99,,,-99.99,,2013-03-06 04:11:00,
2013-03-05 20:21:00,48.0,42.0,29.95,North,352,0.0,2.0,81,-99.99,,,-99.99,,2013-03-06 04:21:00,
2013-03-05 20:31:00,47.0,41.0,29.95,North,350,0.0,2.0,81,-99.99,,,-99.99,,2013-03-06 04:31:00,
2013-03-05 20:41:00,47.0,41.0,29.95,North,350,0.0,2.0,81,-99.99,,,-99.99,,2013-03-06 04:41:00,
2013-03-05 20:51:00,47.0,42.0,29.95,NNE,27,2.0,2.0,82,-99.99,,,-99.99,,2013-03-06 04:51:00,
2013-03-05 21:01:00,46.0,41.0,29.95,ENE,59,2.0,3.0,83,-99.99,,,-99.99,,2013-03-06 05:01:00,
2013-03-05 21:11:00,46.0,41.0,29.95,North,0,0.0,2.0,84,-99.99,,,-99.99,,2013-03-06 05:11:00,
2013-03-05 21:22:00,46.0,41.0,29.95,North,0,0.0,2.0,84,-99.99,,,-99.99,,2013-03-06 05:22:00,
2013-03-05 21:32:00,46.0,42.0,29.95,North,0,0.0,0.0,85,-99.99,,,-99.99,,2013-03-06 05:32:00,
2013-03-05 21:42:00,46.0,42.0,29.95,North,0,0.0,0.0,85,-99.99,,,-99.99,,2013-03-06 05:42:00,
2013-03-05 21:52:00,46.0,42.0,29.95,North,0,0.0,0.0,85,-99.99,,,-99.99,,2013-03-06 05:52:00,
2013-03-05 22:01:00,46.0,42.0,29.95,SW,236,0.0,3.0,85,-99.99,,,-99.99,,2013-03-06 06:01:00,
2013-03-05 22:11:00,46.0,42.0,29.95,SW,236,0.0,3.0,85,-99.99,,,-99.99,,2013-03-06 06:11:00,
2013-03-05 22:22:00,46.0,42.0,29.96,SSW,196,1.0,2.0,85,-99.99,,,-99.99,,2013-03-06 06:22:00,
2013-03-05 22:31:00,46.0,41.0,29.96,South,182,2.0,6.0,82,-99.99,,,-99.99,,2013-03-06 06:31:00,
2013-03-05 22:41:00,46.0,41.0,29.96,South,182,2.0,6.0,82,-99.99,,,-99.99,,2013-03-06 06:41:00,
2013-03-05 22:52:00,47.0,40.0,29.95,South,179,5.0,6.0,77,-99.99,,,-99.99,,2013-03-06 06:52:00,
2013-03-05 23:01:00,49.0,40.0,29.95,SSE,160,9.0,11.0,70,-99.99,,,-99.99,,2013-03-06 07:01:00,
2013-03-05 23:11:00,49.0,40.0,29.95,SSE,160,9.0,11.0,70,-99.99,,,-99.99,,2013-03-06 07:11:00,
2013-03-05 23:22:00,49.0,40.0,29.95,SSE,160,9.0,11.0,70,-99.99,,,-99.99,,2013-03-06 07:22:00,
2013-03-05 23:31:00,49.0,40.0,29.95,SE,138,10.0,12.0,72,-99.99,,,-99.99,,2013-03-06 07:31:00,
2013-03-05 23:41:00,49.0,40.0,29.95,SE,138,10.0,12.0,72,-99.99,,,-99.99,,2013-03-06 07:41:00,
2013-03-05 23:52:00,48.0,40.0,29.96,South,174,5.0,10.0,74,-99.99,,,-99.99,,2013-03-06 07:52:00,